| time (UTC) | temp F | wind direction | speed MPH | gust MPH | rain 1hr in | rain 24hr in | rain mn in | humidity % | barometer mb |
| 20260506084121 | 73 | 207 | 8.0 | 20.0 | 0.00 | 0.00 | 0.00 | 48 | 1011.6 |
| 20260506083017 | 73 | 228 | 6.0 | 17.0 | 0.00 | 0.00 | 0.00 | 48 | 1011.6 |
| 20260506082032 | 73 | 219 | 7.0 | 17.0 | 0.00 | 0.00 | 0.00 | 49 | 1011.7 |
| 20260506081028 | 72 | 234 | 7.0 | 17.0 | 0.00 | 0.00 | 0.00 | 50 | 1011.7 |
| 20260506073032 | 70 | 216 | 6.0 | 15.0 | 0.00 | 0.00 | 0.00 | 55 | 1011.9 |
| 20260506072028 | 69 | 208 | 5.0 | 13.0 | 0.00 | 0.00 | 0.00 | 56 | 1011.9 |
| 20260506071024 | 68 | 207 | 6.0 | 17.0 | 0.00 | 0.00 | 0.00 | 57 | 1011.9 |
| 20260506062024 | 66 | 216 | 5.0 | 13.0 | 0.00 | 0.00 | 0.00 | 61 | 1012.1 |
| 20260506061020 | 65 | 205 | 4.0 | 13.0 | 0.00 | 0.00 | 0.00 | 63 | 1012.1 |
| 20260506051055 | 59 | 175 | 4.0 | 8.0 | 0.00 | 0.00 | 0.00 | 72 | 1011.9 |
| 20260506045026 | 57 | 122 | 2.0 | 8.0 | 0.00 | 0.00 | 0.00 | 75 | 1011.8 |
| 20260506044022 | 56 | 176 | 1.0 | 5.0 | 0.00 | 0.00 | 0.00 | 76 | 1011.8 |
| 20260506043018 | 54 | 168 | 1.0 | 5.0 | 0.00 | 0.00 | 0.00 | 77 | 1011.6 |
| 20260506042055 | 54 | 170 | 0.0 | 5.0 | 0.00 | 0.00 | 0.00 | 77 | 1011.5 |
| 20260506041029 | 53 | 171 | 1.0 | 5.0 | 0.00 | 0.00 | 0.00 | 78 | 1011.4 |
| 20260506040026 | 54 | 181 | 1.0 | 5.0 | 0.00 | 0.00 | 0.00 | 77 | 1011.3 |
| 20260506035021 | 54 | 183 | 1.0 | 2.0 | 0.00 | 0.00 | 0.00 | 77 | 1011.4 |
| 20260506034037 | 53 | 164 | 0.0 | 2.0 | 0.00 | 0.00 | 0.00 | 78 | 1011.2 |
| 20260506033033 | 52 | 176 | 0.0 | 2.0 | 0.00 | 0.00 | 0.00 | 78 | 1011.1 |
| 20260506032029 | 51 | 160 | 0.0 | 2.0 | 0.00 | 0.00 | 0.00 | 79 | 1011.1 |
| 20260506031026 | 51 | 174 | 1.0 | 5.0 | 0.00 | 0.00 | 0.00 | 78 | 1011.1 |
| 20260506030021 | 51 | 182 | 2.0 | 5.0 | 0.00 | 0.00 | 0.00 | 78 | 1011.2 |
| 20260506025017 | 51 | 181 | 0.0 | 2.0 | 0.00 | 0.00 | 0.00 | 78 | 1011.1 |
| 20260506024033 | 52 | 190 | 1.0 | 5.0 | 0.00 | 0.00 | 0.00 | 77 | 1011.1 |
| 20260506023028 | 52 | 175 | 0.0 | 5.0 | 0.00 | 0.00 | 0.00 | 77 | 1010.8 |
| 20260506022024 | 53 | 164 | 0.0 | 2.0 | 0.00 | 0.00 | 0.00 | 77 | 1010.9 |
| 20260506021020 | 53 | 177 | 0.0 | 2.0 | 0.00 | 0.00 | 0.00 | 77 | 1010.9 |
| 20260506020035 | 53 | 160 | 0.0 | 2.0 | 0.00 | 0.00 | 0.00 | 77 | 1010.9 |
| 20260506015031 | 53 | 0.0 | 2.0 | 0.00 | 0.00 | 0.00 | 77 | 1011.1 | |
| 20260506014027 | 53 | 164 | 0.0 | 2.0 | 0.00 | 0.00 | 0.00 | 77 | 1011.1 |
| 20260506013023 | 53 | 0.0 | 0.0 | 0.00 | 0.00 | 0.00 | 77 | 1011.2 | |
| 20260506012019 | 53 | 0.0 | 2.0 | 0.00 | 0.00 | 0.00 | 77 | 1011.2 | |
| 20260506011036 | 53 | 163 | 0.0 | 2.0 | 0.00 | 0.00 | 0.00 | 76 | 1011.2 |
| 20260506010031 | 53 | 172 | 1.0 | 2.0 | 0.00 | 0.00 | 0.00 | 76 | 1011.2 |
| 20260506005047 | 52 | 0.0 | 0.0 | 0.00 | 0.00 | 0.00 | 77 | 1011.2 | |
| 20260506004103 | 53 | 0.0 | 0.0 | 0.00 | 0.00 | 0.00 | 76 | 1011.2 | |
| 20260506003019 | 53 | 164 | 0.0 | 2.0 | 0.00 | 0.00 | 0.00 | 76 | 1011.2 |
| 20260506002056 | 53 | 0.0 | 0.0 | 0.00 | 0.00 | 0.00 | 76 | 1011.3 | |
| 20260506001032 | 53 | 0.0 | 0.0 | 0.00 | 0.00 | 0.00 | 75 | 1011.2 | |
| 20260506000108 | 53 | 0.0 | 0.0 | 0.00 | 0.00 | 0.00 | 75 | 1011.3 | |
| 20260505235023 | 54 | 0.0 | 0.0 | 0.00 | 0.00 | 0.00 | 74 | 1011.4 | |
| 20260505234019 | 54 | 0.0 | 0.0 | 0.00 | 0.00 | 0.00 | 73 | 1011.3 | |
| 20260505233036 | 55 | 0.0 | 0.0 | 0.00 | 0.00 | 0.00 | 72 | 1011.3 | |
| 20260505232102 | 55 | 0.0 | 0.0 | 0.00 | 0.00 | 0.00 | 72 | 1011.3 | |
| 20260505231026 | 56 | 0.0 | 0.0 | 0.00 | 0.00 | 0.00 | 70 | 1011.2 | |
| 20260505230022 | 57 | 169 | 0.0 | 2.0 | 0.00 | 0.00 | 0.00 | 70 | 1011.3 |
| 20260505225018 | 57 | 0.0 | 0.0 | 0.00 | 0.00 | 0.00 | 69 | 1011.2 | |
| 20260505224035 | 57 | 184 | 0.0 | 2.0 | 0.00 | 0.00 | 0.00 | 69 | 1011.2 |
| 20260505223031 | 57 | 143 | 0.0 | 2.0 | 0.00 | 0.00 | 0.00 | 69 | 1011.2 |
| 20260505222026 | 57 | 140 | 0.0 | 2.0 | 0.00 | 0.00 | 0.00 | 68 | 1011.1 |
| 20260505221022 | 58 | 0.0 | 0.0 | 0.00 | 0.00 | 0.00 | 65 | 1011.1 | |
| 20260505220017 | 59 | 242 | 1.0 | 5.0 | 0.00 | 0.00 | 0.00 | 64 | 1011.1 |
| 20260505215053 | 59 | 249 | 2.0 | 5.0 | 0.00 | 0.00 | 0.00 | 63 | 1011.1 |
| 20260505214049 | 60 | 258 | 4.0 | 8.0 | 0.00 | 0.00 | 0.00 | 62 | 1011.1 |
| 20260505213024 | 61 | 261 | 5.0 | 10.0 | 0.00 | 0.00 | 0.00 | 61 | 1011.1 |
| 20260505212020 | 61 | 259 | 5.0 | 8.0 | 0.00 | 0.00 | 0.00 | 60 | 1011.3 |
| 20260505211035 | 61 | 253 | 4.0 | 10.0 | 0.00 | 0.00 | 0.00 | 60 | 1011.2 |
| 20260505210032 | 60 | 264 | 3.0 | 5.0 | 0.00 | 0.00 | 0.00 | 60 | 1011.3 |
| 20260505205027 | 60 | 256 | 3.0 | 8.0 | 0.00 | 0.00 | 0.00 | 60 | 1011.3 |
| 20260505204023 | 60 | 252 | 3.0 | 8.0 | 0.00 | 0.00 | 0.00 | 58 | 1011.2 |
| 20260505203020 | 61 | 250 | 5.0 | 10.0 | 0.00 | 0.00 | 0.00 | 54 | 1011.1 |
| 20260505202036 | 62 | 248 | 3.0 | 5.0 | 0.00 | 0.00 | 0.00 | 52 | 1010.9 |
| 20260505201031 | 63 | 0.0 | 0.0 | 0.00 | 0.00 | 0.00 | 51 | 1010.6 | |
| 20260505200028 | 64 | 243 | 1.0 | 2.0 | 0.00 | 0.00 | 0.00 | 49 | 1010.5 |
| 20260505195024 | 65 | 241 | 1.0 | 2.0 | 0.00 | 0.00 | 0.00 | 48 | 1010.4 |
| 20260505194040 | 66 | 248 | 4.0 | 8.0 | 0.00 | 0.00 | 0.00 | 47 | 1010.3 |
| 20260505193016 | 65 | 236 | 0.0 | 5.0 | 0.00 | 0.00 | 0.00 | 53 | 1010.2 |
| 20260505192031 | 66 | 0.0 | 2.0 | 0.00 | 0.00 | 0.00 | 51 | 1010.0 | |
| 20260505191027 | 66 | 0.0 | 0.0 | 0.00 | 0.00 | 0.00 | 52 | 1009.9 | |
| 20260505190023 | 66 | 0.0 | 0.0 | 0.00 | 0.00 | 0.00 | 54 | 1009.9 | |
| 20260505185019 | 66 | 172 | 0.0 | 2.0 | 0.00 | 0.00 | 0.00 | 51 | 1009.9 |
| 20260505184035 | 68 | 153 | 0.0 | 2.0 | 0.00 | 0.00 | 0.00 | 48 | 1009.9 |
| 20260505183030 | 68 | 191 | 0.0 | 2.0 | 0.00 | 0.00 | 0.00 | 49 | 1009.8 |
| 20260505182026 | 70 | 128 | 0.0 | 2.0 | 0.00 | 0.00 | 0.00 | 48 | 1009.7 |
| 20260505181022 | 70 | 130 | 0.0 | 2.0 | 0.00 | 0.00 | 0.00 | 49 | 1009.7 |
| 20260505180018 | 71 | 0.0 | 0.0 | 0.00 | 0.00 | 0.00 | 47 | 1009.7 | |
| 20260505175033 | 72 | 0.0 | 0.0 | 0.00 | 0.00 | 0.00 | 45 | 1009.7 | |
| 20260505174048 | 73 | 0.0 | 0.0 | 0.00 | 0.00 | 0.00 | 46 | 1009.6 | |
| 20260505173025 | 75 | 0.0 | 0.0 | 0.00 | 0.00 | 0.00 | 44 | 1009.5 | |
| 20260505172020 | 75 | 0.0 | 2.0 | 0.00 | 0.00 | 0.00 | 42 | 1009.5 | |
| 20260505171016 | 76 | 0.0 | 0.0 | 0.00 | 0.00 | 0.00 | 42 | 1009.6 | |
| 20260505170032 | 77 | 0.0 | 0.0 | 0.00 | 0.00 | 0.00 | 40 | 1009.7 | |
| 20260505165028 | 79 | 0.0 | 2.0 | 0.00 | 0.00 | 0.00 | 37 | 1009.7 | |
| 20260505164024 | 77 | 250 | 0.0 | 5.0 | 0.00 | 0.00 | 0.00 | 39 | 1009.8 |
| 20260505163020 | 76 | 248 | 1.0 | 2.0 | 0.00 | 0.00 | 0.00 | 39 | 1009.8 |
| 20260505162016 | 76 | 251 | 3.0 | 8.0 | 0.00 | 0.00 | 0.00 | 38 | 1010.0 |
| 20260505161032 | 76 | 246 | 5.0 | 10.0 | 0.00 | 0.00 | 0.00 | 38 | 1009.8 |
| 20260505153035 | 82 | 205 | 4.0 | 10.0 | 0.00 | 0.00 | 0.00 | 28 | 1010.0 |
| 20260505152031 | 82 | 219 | 3.0 | 10.0 | 0.00 | 0.00 | 0.00 | 28 | 1010.0 |
| 20260505151107 | 82 | 193 | 6.0 | 15.0 | 0.00 | 0.00 | 0.00 | 27 | 1010.1 |
| 20260505125031 | 83 | 194 | 7.0 | 15.0 | 0.00 | 0.00 | 0.00 | 27 | 1011.5 |
| 20260505124027 | 83 | 205 | 7.0 | 13.0 | 0.00 | 0.00 | 0.00 | 27 | 1011.7 |
| 20260505123043 | 84 | 193 | 3.0 | 13.0 | 0.00 | 0.00 | 0.00 | 26 | 1011.8 |
| 20260505122019 | 83 | 176 | 4.0 | 10.0 | 0.00 | 0.00 | 0.00 | 27 | 1012.0 |
| 20260505121035 | 83 | 203 | 5.0 | 15.0 | 0.00 | 0.00 | 0.00 | 27 | 1012.1 |
| 20260505120030 | 82 | 197 | 6.0 | 17.0 | 0.00 | 0.00 | 0.00 | 27 | 1012.2 |
| 20260505115026 | 82 | 195 | 7.0 | 15.0 | 0.00 | 0.00 | 0.00 | 27 | 1012.2 |
| 20260505114023 | 82 | 195 | 7.0 | 15.0 | 0.00 | 0.00 | 0.00 | 27 | 1012.4 |
| 20260505113039 | 81 | 183 | 7.0 | 20.0 | 0.00 | 0.00 | 0.00 | 27 | 1012.5 |
| 20260505112015 | 81 | 191 | 4.0 | 13.0 | 0.00 | 0.00 | 0.00 | 27 | 1012.5 |
| 20260505111031 | 81 | 177 | 5.0 | 15.0 | 0.00 | 0.00 | 0.00 | 27 | 1012.7 |
| 20260505102029 | 81 | 202 | 6.0 | 15.0 | 0.00 | 0.00 | 0.00 | 27 | 1013.1 |
| 20260505101025 | 79 | 182 | 8.0 | 17.0 | 0.00 | 0.00 | 0.00 | 27 | 1013.3 |
| 20260505100021 | 79 | 183 | 7.0 | 17.0 | 0.00 | 0.00 | 0.00 | 28 | 1013.4 |
| 20260505095017 | 78 | 172 | 7.0 | 15.0 | 0.00 | 0.00 | 0.00 | 29 | 1013.5 |
| 20260505094033 | 78 | 192 | 7.0 | 15.0 | 0.00 | 0.00 | 0.00 | 30 | 1013.7 |
| 20260505093029 | 79 | 187 | 7.0 | 13.0 | 0.00 | 0.00 | 0.00 | 29 | 1013.7 |
| 20260505092025 | 79 | 185 | 5.0 | 15.0 | 0.00 | 0.00 | 0.00 | 30 | 1013.8 |
| 20260505091041 | 78 | 195 | 7.0 | 17.0 | 0.00 | 0.00 | 0.00 | 30 | 1013.9 |
| 20260505090017 | 77 | 206 | 8.0 | 15.0 | 0.00 | 0.00 | 0.00 | 30 | 1013.9 |
| 20260505085032 | 77 | 179 | 6.0 | 17.0 | 0.00 | 0.00 | 0.00 | 30 | 1014.0 |